Temp_Advection
nan nan nan nan nan nan nan nan nan nan nan nan nan nan nan nan nan nan nan nan nan nan nan nan nan nan nan nan nan nan nan nan nan nan nan nan nan nan nan nan nan nan nan nan
nan -0 0 -0 -0 -0 0 0 0 -0 -0 -0 0 0 -0 -0 -0 -0 -0 -0 -0 -0 -0 -0 -0 -0 -0 -0 -0 -0 -0 0 0 -0 -0 0 0 0 0 1 0 0 0 nan
nan -1 0 1 0 -1 -0 -0 0 -0 -0 -0 -0 -0 -0 -0 -0 -0 -0 -0 -0 -0 -0 -0 -0 0 -0 -0 -0 -0 0 0 0 0 0 0 0 0 1 1 0 0 0 nan
nan -0 1 0 0 -0 -1 -0 -0 -0 -0 -0 -0 0 0 0 -0 -0 -0 -0 -0 -0 -0 0 0 0 0 0 -0 -0 0 0 0 0 -0 0 0 1 1 0 1 0 1 nan
nan 0 -0 -0 -0 -0 -0 -0 -0 0 0 -0 -1 -1 -0 0 0 -0 -0 -0 -0 -0 -0 -0 0 -0 -0 0 -0 -0 -0 0 -0 0 0 0 0 1 1 0 1 2 1 nan
nan 0 0 -0 -0 -0 -0 -0 0 0 -0 -0 -1 -0 -0 -0 -0 -0 -0 -0 -0 -0 -0 -0 -0 -0 -0 -0 -0 -0 -0 0 0 0 0 0 0 0 1 1 1 2 2 nan
nan 1 -1 -0 -0 -0 -0 0 -0 -0 -0 -0 -0 -0 -0 -0 -0 -0 -0 -0 -0 -0 -0 -0 -0 -0 -0 -0 -0 -0 0 0 0 0 0 0 1 1 1 1 2 2 2 nan
nan 0 0 -0 -0 0 -0 0 -0 -0 -0 -0 -0 -0 -0 -0 -0 -0 -0 -0 -0 -1 -0 -0 -0 -0 -0 -0 -0 0 0 0 0 0 0 0 0 1 1 1 1 1 2 nan
nan -0 -0 -0 -0 -0 -0 -0 -0 -0 -0 -0 -0 -0 -0 -0 -1 -0 -0 -1 -0 -0 -0 -0 -0 -0 -1 -0 0 -0 -0 -0 0 0 0 -0 -0 0 0 0 -0 0 0 nan
nan -0 -0 -0 -0 -0 -0 -0 -0 -0 -0 -0 -0 -0 -1 -0 -1 -0 -0 -0 -0 -0 -0 -0 -0 -0 -0 -0 0 -0 -0 -0 -0 0 0 -0 -0 -0 -0 -0 -0 -0 0 nan
nan -0 -0 -0 -0 -0 -0 -0 -0 -0 -0 -0 -0 -0 -0 -0 -0 -0 -0 0 -0 -0 -0 -0 -0 -0 0 0 -0 -0 -0 -0 -0 0 -0 -0 -0 0 0 0 0 0 -0 nan
nan -0 -0 -0 -0 -0 -0 -0 -0 -0 -0 -0 -0 0 0 0 0 -0 -0 -0 -0 -0 -0 -0 -0 0 0 -0 -0 -0 -0 -1 0 -0 -0 0 0 0 -0 0 0 0 0 nan
nan -0 -0 -0 -0 -0 -0 0 -0 -0 -0 -0 0 -0 0 -0 0 0 -0 -0 -0 -0 -0 -0 0 -0 -0 -0 -0 -0 -0 -0 0 -0 -0 -0 -0 -0 -0 0 0 0 -0 nan
nan -0 -0 -0 -0 -0 -0 -0 -0 -0 -0 -0 -0 -0 -0 0 0 0 -0 -0 -0 -0 -0 0 -0 -0 -0 -0 -0 -0 -0 -0 -0 -0 -0 -0 -0 -0 -0 -0 -0 -0 0 nan
nan -0 -0 -0 -0 -0 0 0 0 -0 -0 -0 -0 -0 -0 -0 -0 0 -0 -0 -0 -0 -0 -0 -1 -0 -0 -0 -0 0 -0 -0 -0 -0 -0 0 0 0 -0 -0 -0 0 0 nan
nan -0 -0 -0 -0 -0 -0 0 0 0 0 -0 -0 -0 -0 -0 -0 -0 0 -0 -0 -0 -0 -1 -0 -0 -0 -0 -0 -0 -0 -0 -0 0 -0 -0 -0 -0 -0 -0 -0 -0 -1 nan
nan -0 -0 -0 -0 -0 -0 -0 -0 0 -0 0 0 -0 -0 -0 -1 -0 -0 0 -0 -0 -0 -0 -0 -0 -0 -0 -1 -0 -0 -0 0 -0 -0 -0 -0 -0 -0 -0 -0 -0 -0 nan
nan -0 -0 -0 -0 -0 -0 -0 -0 -0 -0 -0 -0 -0 -0 -0 -0 -1 -1 -0 -0 -0 0 0 -0 -0 -0 -0 -1 -0 -0 -0 0 -0 -0 -0 0 -0 -0 -0 -0 -0 0 nan
nan -0 -0 -0 -0 -0 -0 -0 -0 -0 -0 -0 -0 -0 -0 0 -0 -0 -0 -0 -1 -1 -0 -0 -0 0 -0 -0 -0 -0 -0 -0 -0 -0 -0 -0 0 -0 -0 -0 -0 -0 -0 nan
nan -0 -0 -0 -0 -0 -0 -0 -0 -0 0 -0 -0 -0 -0 -0 0 -0 -0 -0 -0 -0 -0 -0 -0 -0 -0 -0 -0 -0 -0 -0 -0 -0 -0 -0 -0 -0 -0 -0 -0 -0 -0 nan
nan -0 -0 -0 -0 -0 -0 -0 -0 -0 0 0 0 -0 -0 -0 0 0 -0 -0 -0 -0 -0 -0 -0 -0 -0 0 -0 -0 -0 -0 -0 -0 -0 -0 -0 -0 -0 -0 -0 -0 -0 nan
nan 0 0 0 0 -0 -0 -0 -0 -0 -0 -0 0 0 -0 -0 -0 -0 0 0 -0 -0 -0 -0 -0 -0 -0 -0 -0 -0 -0 -0 -0 -0 -0 -0 -0 -0 -0 -0 -0 -0 -0 nan
nan 0 0 0 -0 -0 -0 0 0 -0 -0 -0 -0 -0 -0 -0 -0 -0 -1 0 0 -0 -0 0 -0 -0 -0 -0 -0 -0 -0 -0 -0 -0 -0 -0 -0 -0 -0 -0 -0 -0 -0 nan
nan -0 -0 0 -0 -0 -0 -0 -0 -0 -0 -0 -0 -0 -0 -0 -0 0 0 -0 -0 -0 -1 -0 -0 -0 -0 -0 -0 -0 -0 -0 -0 -0 -0 -0 -0 -0 -0 -0 -0 -0 -0 nan
nan -0 0 0 0 -0 -0 -0 -0 0 0 -0 -0 0 0 0 -0 -0 -0 -0 -0 -0 -0 -0 -0 -0 -0 -0 -0 -0 -0 -0 -0 -0 -0 -0 -0 -0 -0 -0 -0 -0 -0 nan
nan 0 0 0 0 0 0 -0 -0 -0 0 0 -0 0 0 0 0 0 0 0 0 -0 -0 -0 -0 -0 -0 -1 -1 -0 -0 -0 -0 -0 -0 -0 -0 -0 -0 -0 0 0 0 nan
nan nan nan nan nan nan nan nan nan nan nan nan nan nan nan nan nan nan nan nan nan nan nan nan nan nan nan nan nan nan nan nan nan nan nan nan nan nan nan nan nan nan nan nan
Wind_Speed
11 11 1 2 6 5 5 5 4 5 2 4 7 9 18 16 23 25 27 32 35 37 38 37 36 33 31 29 26 25 22 15 8 6 11 24 35 34 47 44 43 40 38 39
7 11 9 6 9 8 5 2 4 3 5 1 16 20 19 14 21 24 27 31 35 36 35 37 36 34 33 31 28 28 26 20 16 5 5 10 29 27 38 38 43 40 43 37
8 9 8 6 6 7 3 3 4 1 4 13 10 18 13 17 21 24 28 32 34 35 33 35 36 33 32 32 28 30 28 24 20 17 6 5 11 27 40 29 45 44 42 40
3 3 7 2 6 5 7 4 3 4 5 10 15 19 7 22 25 27 29 31 31 32 31 32 32 31 31 31 29 33 34 30 27 23 18 7 6 13 17 27 41 32 41 39
5 5 4 2 3 2 3 1 2 1 8 13 23 21 4 26 26 26 26 27 27 28 28 31 33 33 33 32 32 34 36 33 29 25 23 18 9 5 8 10 20 36 33 33
3 4 2 4 5 4 3 2 5 8 9 13 17 6 5 26 25 26 25 26 27 26 28 31 32 32 34 34 34 36 36 32 28 25 25 25 20 10 5 8 15 17 32 33
7 4 3 5 6 1 1 2 7 9 9 12 5 11 19 22 23 23 25 26 24 24 28 29 31 32 33 33 34 33 33 30 29 27 27 28 26 20 15 10 11 16 18 27
4 1 2 13 5 2 2 6 7 9 10 12 13 15 17 19 22 23 26 27 25 26 27 28 30 34 34 34 32 30 33 29 30 28 28 30 30 29 25 24 21 18 15 14
3 2 4 9 11 6 5 7 9 9 10 11 13 15 17 20 20 21 23 25 24 24 25 26 29 32 33 31 29 29 32 31 29 30 28 29 33 33 32 28 29 27 25 22
3 4 7 8 8 7 8 7 8 8 10 11 13 14 16 17 19 20 21 22 23 24 24 26 27 29 29 28 26 28 31 32 31 31 29 27 29 31 34 34 31 29 28 25
2 5 0 7 6 7 6 7 8 7 9 10 13 13 13 16 18 19 21 22 22 23 24 25 26 28 30 27 26 27 30 30 31 31 30 27 26 28 28 27 31 30 26 26
2 7 4 4 7 8 8 9 9 11 13 10 11 14 14 15 16 19 21 21 21 21 22 25 25 27 30 28 26 24 28 29 28 29 30 28 26 25 23 23 24 27 24 23
3 6 3 6 6 10 11 10 9 12 11 13 12 14 14 15 16 16 17 18 19 21 22 24 23 25 28 28 26 24 25 26 24 26 28 27 27 27 26 23 23 23 24 23
8 7 3 7 7 10 10 11 10 11 12 12 12 12 14 15 14 15 17 19 18 18 20 21 22 24 25 28 25 23 22 25 23 22 23 23 23 24 24 25 26 25 24 22
10 7 8 8 10 11 12 11 12 13 14 14 12 13 15 15 16 16 17 17 17 15 17 19 23 23 24 27 26 24 22 25 21 20 20 20 19 20 21 22 22 24 23 22
10 7 8 9 10 11 11 13 12 12 13 14 16 16 15 15 16 15 17 17 19 19 18 20 23 22 24 26 26 23 22 21 20 19 19 19 20 20 19 19 20 21 24 25
12 13 12 12 13 12 13 12 12 12 13 14 15 15 15 18 17 15 15 15 15 15 15 19 20 21 20 21 26 22 21 20 19 18 18 19 19 19 18 18 18 19 19 21
10 10 10 12 13 13 13 11 12 13 14 14 14 14 15 16 17 18 18 17 15 12 13 16 18 19 19 19 26 22 19 19 18 18 17 17 17 16 16 16 16 17 17 17
11 12 12 11 13 14 12 13 14 15 13 13 14 15 13 14 16 18 17 16 15 15 14 16 17 15 18 18 22 23 19 17 16 16 16 15 15 15 15 15 15 15 15 16
14 13 13 13 12 13 14 14 14 15 13 12 14 14 15 15 15 16 16 15 10 14 15 18 17 13 19 22 24 23 18 16 15 14 14 13 14 14 14 14 14 14 14 14
17 15 15 15 15 14 13 14 15 16 15 14 14 16 17 17 17 15 17 17 14 12 13 13 15 9 20 22 25 22 17 15 14 13 13 13 13 13 13 13 13 13 14 14
17 17 18 17 17 17 15 15 15 15 15 15 16 17 17 18 18 17 16 16 14 14 12 15 18 13 16 22 23 18 16 14 13 12 12 12 12 12 13 12 12 13 13 13
17 17 17 16 16 17 16 13 12 16 17 16 16 17 17 18 18 19 20 14 14 15 16 19 13 14 15 23 21 16 14 13 12 11 11 11 11 11 12 12 11 11 11 11
16 17 16 16 16 16 15 15 17 17 17 16 16 15 16 16 17 14 14 15 15 15 16 18 16 14 17 22 18 15 13 13 12 11 10 9 9 9 10 10 9 9 9 10
20 18 17 16 16 16 16 17 18 17 15 15 16 14 17 18 19 18 17 19 19 17 17 16 14 15 19 20 17 14 13 13 13 12 10 9 8 7 7 7 8 9 10 10
18 17 17 15 16 18 19 21 19 19 19 20 22 20 15 16 17 16 18 18 18 18 19 21 22 19 18 18 16 15 14 13 13 13 11 9 8 6 4 4 5 6 7 9
18 15 17 17 18 18 19 19 21 20 17 19 20 18 21 19 21 20 21 23 21 20 19 19 18 17 16 16 16 15 15 15 15 14 12 10 9 7 5 3 2 3 4 6
Wind_Direction
267 273 252 121 147 156 170 212 164 253 334 354 338 327 329 343 344 338 340 343 345 346 349 354 356 360 4 2 2 7 8 354 345 244 213 213 204 210 207 211 220 222 214 211
268 274 236 174 165 169 169 237 282 321 283 300 345 337 320 360 348 339 341 341 345 350 353 356 358 359 5 6 7 12 12 15 15 4 223 200 206 200 211 211 213 219 217 219
255 268 270 218 199 172 149 113 149 273 251 352 339 341 41 9 352 342 341 343 346 351 355 360 0 2 8 9 11 14 19 24 25 31 36 209 202 204 213 197 210 216 216 215
266 297 247 172 39 100 117 136 72 0 332 336 328 313 28 10 355 346 344 344 347 350 358 3 5 9 13 15 17 18 23 26 28 31 37 44 181 190 204 204 207 202 205 214
244 233 110 136 45 51 174 122 103 1 343 350 333 327 175 351 347 343 343 342 348 351 1 6 11 13 15 19 21 24 24 27 29 32 39 41 43 165 199 200 180 187 203 212
219 229 234 68 97 74 55 148 48 31 6 356 343 0 333 337 341 342 344 346 349 356 5 10 11 16 17 18 21 25 26 27 32 36 45 52 51 63 113 181 181 172 184 191
258 256 85 14 3 23 128 201 4 16 16 2 348 327 325 335 340 343 345 348 351 3 8 8 9 14 19 19 21 26 28 31 37 40 49 58 61 64 78 102 146 166 175 181
315 160 177 352 312 318 2 18 40 8 3 348 340 339 340 341 343 346 347 350 358 3 5 9 12 13 14 18 19 25 31 33 40 43 50 57 62 68 73 81 91 101 118 145
28 78 98 55 75 70 33 22 16 356 348 345 344 344 343 342 344 344 349 349 357 0 2 11 15 15 11 13 20 24 32 32 40 44 51 54 55 60 63 68 70 71 73 73
200 82 44 67 65 43 28 17 1 353 348 344 340 342 339 343 341 349 348 352 357 0 6 9 14 16 12 11 19 25 31 29 35 45 48 52 55 52 53 54 58 59 64 62
75 70 1 72 31 10 359 351 336 338 334 336 330 334 339 342 346 354 352 355 1 4 7 8 10 14 12 14 19 24 30 26 31 40 42 51 54 54 49 53 49 50 52 55
32 360 329 26 344 350 353 343 345 344 341 344 334 338 341 348 353 353 352 356 0 6 8 8 9 13 13 15 21 23 29 22 29 34 36 40 48 58 59 56 59 52 57 55
332 337 345 356 338 348 346 347 349 333 340 342 348 343 344 345 351 344 354 359 1 3 5 5 8 14 14 15 20 25 28 20 26 33 32 33 37 40 43 53 55 56 51 51
10 352 327 336 332 337 342 344 344 346 340 337 340 345 343 344 346 350 354 358 359 358 3 4 8 11 13 14 18 23 29 24 24 31 31 30 36 39 42 40 41 46 50 47
358 354 345 338 345 345 343 345 342 336 341 342 335 339 342 343 345 349 351 351 354 355 0 5 10 7 10 11 16 19 22 26 18 26 30 30 36 41 42 41 42 46 49 45
350 349 348 338 337 336 335 331 332 338 336 337 334 333 339 340 341 343 346 346 349 355 360 6 6 4 7 4 11 15 18 22 17 24 29 29 31 36 40 40 39 41 46 32
353 347 340 332 329 330 328 329 329 328 328 325 325 330 335 333 333 337 343 346 348 350 355 0 0 1 360 6 9 8 11 16 19 25 28 28 23 31 32 32 35 38 41 36
338 328 323 322 324 322 321 323 321 319 319 320 322 325 324 330 335 337 341 343 343 350 353 352 3 350 358 9 359 4 9 12 15 19 20 23 20 26 29 30 30 31 34 36
334 328 323 318 318 319 314 311 313 312 316 317 317 318 325 325 320 323 332 341 343 346 349 353 352 353 355 2 355 1 3 5 8 15 16 15 19 22 23 25 27 29 30 32
323 323 316 312 303 305 303 306 302 304 311 311 309 314 316 320 320 324 329 332 339 324 341 350 339 349 358 352 353 354 355 356 0 5 8 11 14 15 18 21 22 24 26 28
330 325 319 317 316 312 304 299 300 302 309 311 306 307 309 314 320 323 324 323 332 332 330 326 343 334 358 335 339 343 346 349 351 355 360 4 8 11 12 14 14 16 19 22
325 323 323 325 322 318 318 311 306 306 308 309 308 308 309 311 314 313 311 310 318 322 324 330 325 350 335 316 327 335 338 341 343 346 348 354 357 2 6 6 10 12 13 14
320 318 315 313 314 318 319 316 316 313 309 307 306 307 305 307 310 311 313 321 319 326 313 306 322 321 318 309 320 328 331 335 337 337 338 343 349 354 358 0 4 6 8 10
316 316 317 319 319 321 323 324 316 310 310 308 308 310 313 312 308 308 304 303 302 308 315 299 309 311 299 297 312 319 326 328 328 326 328 330 336 343 350 355 360 4 4 7
319 320 323 326 321 321 315 316 314 317 318 316 317 316 311 305 303 313 313 308 306 302 303 306 302 284 280 298 305 310 319 321 324 322 319 318 322 331 344 357 5 13 16 11
334 334 333 329 324 324 322 320 320 323 321 312 303 304 309 315 309 301 307 309 305 301 289 290 292 294 297 298 301 304 309 311 311 312 309 305 303 308 323 355 18 27 37 34
326 322 326 323 320 319 318 321 312 309 315 317 314 322 317 312 304 302 298 297 299 299 298 296 292 290 287 286 285 293 298 302 303 303 302 294 288 287 279 276 343 4 15 23
Height
1514 1511 1515 1521 1532 1539 1550 1555 1553 1553 1548 1540 1535 1531 1526 1523 1519 1515 1508 1501 1493 1485 1476 1467 1457 1449 1439 1434 1425 1416 1407 1404 1394 1390 1390 1392 1394 1402 1405 1412 1420 1427 1433 1436
1515 1507 1509 1518 1526 1535 1545 1545 1549 1549 1547 1536 1533 1529 1526 1524 1520 1515 1508 1502 1494 1485 1476 1466 1457 1449 1439 1431 1424 1416 1410 1398 1392 1386 1383 1386 1390 1391 1398 1405 1411 1418 1426 1431
1513 1504 1502 1512 1520 1529 1540 1540 1546 1551 1544 1535 1532 1530 1527 1524 1520 1515 1509 1501 1494 1486 1478 1468 1459 1450 1441 1433 1426 1420 1411 1399 1391 1384 1380 1380 1384 1386 1393 1394 1402 1407 1416 1423
1508 1508 1507 1528 1521 1521 1532 1540 1540 1541 1539 1536 1533 1530 1527 1523 1520 1514 1508 1501 1494 1487 1478 1471 1463 1453 1443 1435 1427 1417 1405 1399 1391 1384 1381 1381 1380 1382 1387 1390 1395 1397 1404 1415
1507 1505 1522 1526 1528 1529 1531 1542 1539 1540 1538 1536 1530 1523 1522 1521 1520 1515 1509 1502 1496 1488 1481 1472 1461 1452 1445 1436 1430 1422 1411 1402 1397 1392 1385 1380 1376 1376 1379 1379 1385 1392 1399 1407
1501 1502 1499 1526 1531 1532 1532 1539 1539 1538 1538 1536 1531 1528 1525 1522 1518 1513 1508 1502 1495 1488 1480 1471 1465 1457 1448 1440 1431 1422 1416 1410 1406 1399 1393 1384 1381 1380 1381 1382 1384 1385 1392 1399
1499 1496 1529 1535 1533 1534 1539 1546 1539 1538 1538 1537 1535 1534 1528 1523 1518 1513 1508 1501 1495 1488 1481 1476 1469 1461 1453 1445 1437 1432 1425 1418 1409 1404 1397 1390 1387 1386 1383 1383 1383 1386 1388 1392
1508 1506 1522 1537 1534 1535 1542 1539 1539 1538 1538 1536 1534 1531 1527 1522 1517 1512 1507 1500 1495 1489 1484 1478 1471 1461 1453 1447 1441 1435 1428 1423 1416 1409 1403 1398 1395 1392 1391 1389 1388 1388 1387 1391
1539 1539 1541 1540 1540 1541 1541 1540 1539 1539 1537 1535 1533 1530 1526 1522 1517 1512 1508 1502 1497 1491 1487 1480 1472 1466 1460 1453 1448 1442 1434 1429 1422 1415 1409 1406 1405 1403 1400 1398 1394 1394 1394 1395
1537 1542 1542 1541 1542 1541 1541 1540 1539 1538 1536 1534 1532 1529 1526 1522 1517 1512 1508 1503 1498 1494 1488 1483 1478 1472 1467 1460 1453 1448 1440 1434 1428 1421 1417 1415 1414 1410 1408 1406 1403 1402 1401 1402
1542 1543 1543 1543 1542 1542 1541 1540 1538 1537 1535 1533 1530 1528 1526 1521 1517 1513 1508 1503 1499 1494 1490 1485 1480 1475 1469 1462 1456 1450 1443 1439 1433 1427 1425 1423 1421 1418 1417 1417 1415 1412 1409 1409
1547 1546 1546 1545 1543 1542 1540 1539 1537 1535 1533 1531 1529 1526 1524 1521 1518 1514 1509 1505 1501 1497 1492 1487 1482 1476 1470 1464 1458 1454 1448 1444 1440 1436 1434 1430 1427 1425 1423 1422 1419 1418 1418 1416
1548 1546 1545 1544 1543 1541 1540 1538 1536 1535 1532 1530 1528 1525 1523 1520 1517 1514 1511 1506 1501 1497 1493 1489 1484 1479 1474 1468 1463 1457 1453 1450 1446 1442 1439 1436 1434 1430 1427 1427 1424 1421 1420 1421
1548 1546 1545 1544 1543 1541 1539 1538 1536 1534 1531 1529 1527 1525 1522 1519 1517 1514 1510 1506 1502 1499 1494 1489 1485 1481 1477 1472 1467 1462 1458 1454 1451 1448 1446 1443 1440 1436 1434 1432 1430 1428 1427 1426
1548 1547 1546 1544 1543 1541 1539 1537 1535 1533 1530 1528 1526 1524 1521 1518 1515 1512 1510 1506 1503 1500 1496 1492 1487 1483 1478 1474 1469 1465 1461 1458 1455 1453 1450 1448 1445 1442 1440 1439 1438 1435 1432 1431
1548 1546 1545 1544 1542 1540 1538 1536 1534 1532 1530 1528 1525 1523 1520 1517 1515 1512 1509 1506 1502 1498 1496 1492 1488 1484 1479 1475 1471 1467 1463 1459 1459 1456 1453 1452 1449 1446 1445 1444 1443 1440 1438 1437
1548 1546 1544 1543 1541 1539 1537 1534 1532 1531 1529 1527 1524 1522 1519 1516 1513 1510 1508 1505 1502 1499 1495 1492 1490 1487 1484 1481 1477 1472 1467 1464 1461 1459 1457 1455 1453 1450 1449 1449 1447 1445 1444 1443
1549 1547 1545 1542 1539 1537 1535 1533 1531 1529 1527 1525 1523 1520 1518 1515 1512 1509 1506 1503 1501 1499 1496 1494 1492 1489 1484 1480 1479 1474 1470 1467 1464 1461 1459 1458 1457 1455 1454 1452 1451 1449 1448 1446
1548 1545 1543 1541 1538 1535 1533 1531 1529 1527 1525 1523 1521 1519 1516 1514 1512 1509 1506 1503 1499 1497 1495 1493 1491 1488 1485 1483 1479 1474 1471 1469 1467 1464 1462 1461 1460 1459 1457 1456 1454 1453 1451 1449
1546 1543 1541 1538 1536 1533 1530 1529 1527 1524 1522 1521 1519 1516 1514 1512 1509 1507 1504 1502 1500 1498 1495 1492 1489 1487 1484 1481 1479 1476 1473 1471 1469 1467 1466 1465 1462 1461 1459 1458 1457 1455 1454 1452
1543 1541 1538 1535 1532 1530 1528 1526 1523 1521 1519 1518 1516 1514 1511 1509 1507 1504 1502 1500 1498 1497 1496 1494 1491 1488 1485 1482 1480 1477 1475 1473 1471 1469 1467 1465 1464 1462 1461 1459 1458 1456 1455 1453
1541 1538 1535 1532 1530 1527 1525 1523 1521 1519 1517 1515 1513 1511 1508 1506 1504 1502 1500 1498 1496 1495 1493 1491 1489 1488 1488 1483 1481 1478 1475 1473 1471 1470 1468 1466 1465 1463 1461 1460 1458 1457 1455 1453
1538 1535 1532 1530 1527 1524 1522 1520 1518 1516 1514 1512 1509 1507 1505 1503 1501 1498 1495 1495 1494 1492 1492 1489 1487 1487 1486 1481 1479 1477 1475 1473 1471 1469 1468 1466 1465 1463 1461 1460 1458 1457 1456 1454
1535 1532 1529 1527 1524 1522 1519 1517 1515 1513 1510 1508 1506 1504 1501 1499 1497 1496 1494 1492 1491 1489 1488 1486 1485 1485 1483 1479 1477 1475 1473 1472 1470 1468 1467 1466 1465 1463 1462 1460 1459 1457 1456 1454
1533 1529 1526 1524 1521 1519 1517 1514 1511 1509 1506 1504 1502 1500 1498 1496 1494 1492 1490 1488 1486 1485 1483 1482 1482 1481 1477 1476 1474 1473 1471 1470 1468 1466 1465 1464 1463 1462 1461 1460 1459 1458 1457 1455
1530 1527 1524 1522 1519 1517 1514 1511 1508 1505 1503 1500 1498 1496 1494 1493 1490 1489 1487 1484 1482 1480 1478 1477 1476 1474 1473 1471 1470 1469 1468 1467 1466 1465 1464 1463 1462 1461 1461 1460 1460 1459 1458 1457
1527 1525 1522 1519 1517 1514 1511 1508 1505 1502 1500 1497 1494 1492 1490 1487 1485 1484 1482 1479 1477 1474 1472 1470 1469 1469 1468 1467 1466 1465 1464 1463 1462 1461 1460 1459 1459 1458 1458 1458 1458 1458 1457 1456